Location: Hermaringen
(48.5952°N, 10.2585°E)
Time: 21:12:44
(UTC+00:00)

Meteor 2-3 Rocket - Pass Details

Date: 18 November 2025
Orbit: 841 x 884 km, 81.2° (Epoch: 10 December)

Event Time Altitude Azimuth Distance (km) Brightness Sun altitude
Rises 18:29:40 0° 344° (NNW) 3,465 7.1 -28.5°
Reaches altitude 10° 18:32:10 10° 340° (NNW) 2,516 6.4 -28.9°
Maximum altitude 18:37:41 52° 265° (W) 1,055 4.4 -29.8°
Drops below altitude 10° 18:43:06 10° 191° (S) 2,471 6.2 -30.7°
Sets 18:45:33 0° 186° (S) 3,397 6.9 -31.1°
